EW4725 Weather Reports


time (UTC)temp
C
wind
direction
speed
KPH
gust
KPH
rain 1hr
cm
rain 24hr
cm
rain mn
cm
humidity
%
barometer
mb
20260508115616 16 125 4.8 6.4 0.00 0.00 0.00 89 1015.5
20260508115116 16 0.0 1.6 0.00 0.00 0.00 89 1015.6
20260508114616 16 148 1.6 3.2 0.00 0.00 0.00 89 1015.5
20260508114116 16 0.0 0.0 0.00 0.00 0.00 88 1015.4
20260508113616 16 125 3.2 3.2 0.00 0.00 0.00 88 1015.5
20260508113116 16 148 4.8 11.3 0.00 0.00 0.00 89 1015.5
20260508112616 16 103 3.2 4.8 0.00 0.00 0.00 89 1015.5
20260508112116 16 80 3.2 3.2 0.00 0.00 0.00 89 1015.4
20260508111616 16 125 3.2 4.8 0.00 0.00 0.00 89 1015.4
20260508111116 16 148 3.2 4.8 0.00 0.00 0.00 89 1015.4
20260508110616 16 125 1.6 4.8 0.00 0.00 0.00 89 1015.4
20260508110116 16 148 3.2 6.4 0.00 0.00 0.00 89 1015.4
20260508105636 16 0.0 1.6 0.00 0.00 0.00 89 1015.4
20260508105136 16 125 1.6 1.6 0.00 0.00 0.00 89 1015.4
20260508104616 16 125 1.6 3.2 0.00 0.00 0.00 89 1015.4
20260508104116 16 0.0 0.0 0.00 0.00 0.00 89 1015.4
20260508103616 16 125 1.6 4.8 0.00 0.00 0.00 89 1015.4
20260508103116 16 148 3.2 9.7 0.00 0.00 0.00 89 1015.4
20260508102636 16 148 4.8 8.0 0.00 0.00 0.00 89 1015.4
20260508102136 16 0.0 1.6 0.00 0.00 0.00 89 1015.5
20260508101616 16 0.0 1.6 0.00 0.00 0.00 89 1015.5
20260508101136 16 103 1.6 3.2 0.00 0.00 0.00 89 1015.5
20260508100617 16 103 3.2 6.4 0.00 0.00 0.00 89 1015.5
20260508100116 16 148 3.2 6.4 0.00 0.00 0.00 89 1015.5
20260508095616 16 148 3.2 4.8 0.00 0.00 0.00 88 1015.5
20260508095116 16 148 1.6 1.6 0.00 0.00 0.00 88 1015.5
20260508094616 16 0.0 3.2 0.00 0.00 0.00 88 1015.5
20260508094116 16 0.0 1.6 0.00 0.00 0.00 88 1015.6
20260508093616 16 170 1.6 3.2 0.00 0.00 0.00 88 1015.5
20260508093116 16 103 3.2 4.8 0.00 0.00 0.00 88 1015.5
20260508092616 16 0.0 1.6 0.00 0.00 0.00 87 1015.5
20260508092116 16 170 1.6 3.2 0.00 0.00 0.00 87 1015.6
20260508091636 15 125 1.6 3.2 0.00 0.00 0.00 87 1015.6
20260508091116 15 0.0 1.6 0.00 0.00 0.00 87 1015.7
20260508090616 15 170 1.6 3.2 0.00 0.00 0.00 87 1015.7
20260508090116 15 0.0 1.6 0.00 0.00 0.00 88 1015.8
20260508085636 15 125 4.8 6.4 0.00 0.00 0.00 88 1015.9
20260508085136 15 125 4.8 8.0 0.00 0.00 0.00 88 1015.8
20260508084616 15 0.0 1.6 0.00 0.00 0.00 88 1015.8
20260508084116 15 148 3.2 6.4 0.00 0.00 0.00 88 1015.7
20260508083616 15 148 4.8 6.4 0.00 0.00 0.00 88 1015.8
20260508083136 15 148 3.2 6.4 0.00 0.00 0.00 88 1015.8
20260508082616 15 148 3.2 6.4 0.00 0.00 0.00 88 1015.9
20260508082116 15 125 4.8 9.7 0.00 0.00 0.00 88 1015.9
20260508081616 15 148 1.6 3.2 0.00 0.00 0.00 88 1016.0
20260508081116 15 125 4.8 6.4 0.00 0.00 0.00 88 1016.1
20260508080656 15 148 4.8 6.4 0.00 0.00 0.00 88 1016.0
20260508080116 15 148 1.6 3.2 0.00 0.00 0.00 88 1016.0
20260508075616 15 148 6.4 9.7 0.00 0.00 0.00 88 1016.1
20260508075116 16 148 4.8 9.7 0.00 0.00 0.00 88 1016.1
20260508074716 16 148 3.2 6.4 0.00 0.00 0.00 88 1016.1
20260508074116 16 148 3.2 6.4 0.00 0.00 0.00 88 1016.0
20260508073616 16 125 1.6 3.2 0.00 0.00 0.00 88 1016.0
20260508073156 16 148 3.2 3.2 0.00 0.00 0.00 88 1016.0
20260508072616 16 148 1.6 1.6 0.00 0.00 0.00 88 1016.1
20260508072116 16 125 1.6 3.2 0.00 0.00 0.00 88 1016.1
20260508071616 16 125 1.6 3.2 0.00 0.00 0.00 88 1016.1
20260508071136 16 148 1.6 1.6 0.00 0.00 0.00 88 1016.1
20260508070615 16 0.0 1.6 0.00 0.00 0.00 88 1016.0
20260508070116 16 0.0 0.0 0.00 0.00 0.00 88 1016.0
20260508065736 16 0.0 0.0 0.00 0.00 0.00 87 1015.9
20260508065116 16 0.0 0.0 0.00 0.00 0.00 87 1016.0
20260508064616 16 0.0 0.0 0.00 0.00 0.00 86 1016.0
20260508064116 16 0.0 0.0 0.00 0.00 0.00 87 1015.9
20260508063616 16 125 1.6 3.2 0.00 0.00 0.00 87 1015.9
20260508063156 16 0.0 1.6 0.00 0.00 0.00 88 1015.8
20260508062616 16 0.0 1.6 0.00 0.00 0.00 88 1015.8
20260508062116 15 0.0 0.0 0.00 0.00 0.00 87 1015.8
20260508061616 15 0.0 0.0 0.00 0.00 0.00 87 1015.8
20260508061116 16 0.0 0.0 0.00 0.00 0.00 86 1015.8
20260508060616 16 0.0 0.0 0.00 0.00 0.00 86 1015.8
20260508060116 16 0.0 0.0 0.00 0.00 0.00 86 1015.8
20260508055616 16 0.0 0.0 0.00 0.00 0.00 86 1015.8
20260508055116 16 0.0 0.0 0.00 0.00 0.00 86 1015.8
20260508054616 16 0.0 0.0 0.00 0.00 0.00 86 1015.8
20260508054116 16 0.0 0.0 0.00 0.00 0.00 86 1015.8
20260508053636 16 0.0 0.0 0.00 0.00 0.00 85 1015.8
20260508053116 16 0.0 0.0 0.00 0.00 0.00 85 1015.8
20260508052616 16 0.0 0.0 0.00 0.00 0.00 85 1015.9
20260508052116 16 260 1.6 1.6 0.00 0.00 0.00 85 1015.9
20260508051616 16 0.0 1.6 0.00 0.00 0.00 85 1015.9
20260508051116 16 0.0 0.0 0.00 0.00 0.00 84 1015.8
20260508050616 16 0.0 1.6 0.00 0.00 0.00 84 1015.8
20260508050116 16 0.0 0.0 0.00 0.00 0.00 84 1015.8
20260508045636 16 0.0 0.0 0.00 0.00 0.00 83 1015.8
20260508045116 16 0.0 0.0 0.00 0.00 0.00 83 1015.7
20260508044636 16 0.0 1.6 0.00 0.00 0.00 83 1015.7
20260508044116 16 260 1.6 3.2 0.00 0.00 0.00 83 1015.7
20260508043616 16 0.0 1.6 0.00 0.00 0.00 83 1015.6
20260508043116 16 260 1.6 1.6 0.00 0.00 0.00 83 1015.6
20260508042616 16 0.0 0.0 0.00 0.00 0.00 83 1015.6
20260508042116 16 0.0 0.0 0.00 0.00 0.00 83 1015.4
20260508041616 16 0.0 0.0 0.00 0.00 0.00 82 1015.3
20260508041116 16 0.0 0.0 0.00 0.00 0.00 82 1015.2
20260508040616 16 0.0 0.0 0.00 0.00 0.00 82 1015.1
20260508040116 16 260 1.6 3.2 0.00 0.00 0.00 82 1015.0
20260508035616 16 283 1.6 1.6 0.00 0.00 0.00 82 1015.1
20260508035116 17 283 3.2 3.2 0.00 0.00 0.00 82 1015.0
20260508034616 17 350 1.6 1.6 0.00 0.00 0.00 82 1014.9
20260508034116 17 305 1.6 3.2 0.00 0.00 0.00 82 1014.8
20260508033616 17 283 4.8 6.4 0.00 0.00 0.00 82 1014.8
20260508033116 17 260 4.8 6.4 0.00 0.00 0.00 82 1014.7
20260508032636 17 283 6.4 9.7 0.00 0.00 0.00 82 1014.7
20260508032116 17 305 4.8 9.7 0.00 0.00 0.00 82 1014.6
20260508031616 17 305 6.4 11.3 0.00 0.00 0.00 83 1014.5
20260508031136 17 283 6.4 8.0 0.00 0.00 0.00 83 1014.4
20260508030616 17 283 6.4 9.7 0.00 0.00 0.00 83 1014.4
20260508030116 17 305 4.8 6.4 0.00 0.00 0.00 83 1014.4
20260508025616 17 283 6.4 8.0 0.00 0.00 0.00 82 1014.3
20260508025116 17 305 3.2 6.4 0.00 0.00 0.00 82 1014.2
20260508024616 17 305 3.2 6.4 0.00 0.00 0.00 81 1014.1
20260508024116 17 283 4.8 8.0 0.00 0.00 0.00 80 1014.1
20260508023616 18 283 8.0 12.9 0.00 0.00 0.00 79 1014.0
20260508023136 18 305 4.8 12.9 0.00 0.00 0.00 78 1013.9
20260508022616 18 305 6.4 9.7 0.00 0.00 0.00 77 1013.9
20260508022136 18 283 4.8 6.4 0.00 0.00 0.00 77 1013.8
20260508021616 18 260 6.4 9.7 0.00 0.00 0.00 76 1013.8
20260508021116 18 283 6.4 9.7 0.00 0.00 0.00 75 1013.8
20260508020636 19 260 8.0 11.3 0.00 0.00 0.00 74 1013.7
20260508020115 19 283 4.8 6.4 0.00 0.00 0.00 73 1013.7
20260508015616 20 260 8.0 9.7 0.00 0.00 0.00 72 1013.6
20260508015136 20 260 8.0 9.7 0.00 0.00 0.00 72 1013.6
20260508014615 20 260 8.0 11.3 0.00 0.00 0.00 72 1013.6
20260508014136 20 283 8.0 11.3 0.00 0.00 0.00 71 1013.6
20260508013636 20 283 8.0 11.3 0.00 0.00 0.00 70 1013.5
20260508013156 20 260 8.0 11.3 0.00 0.00 0.00 70 1013.5
20260508012636 20 283 6.4 9.7 0.00 0.00 0.00 70 1013.5
20260508012136 20 305 11.3 17.7 0.00 0.00 0.00 69 1013.5
20260508011615 20 283 11.3 17.7 0.00 0.00 0.00 68 1013.5
20260508011115 20 283 9.7 14.5 0.00 0.00 0.00 69 1013.5
20260508010616 20 305 11.3 16.1 0.00 0.00 0.00 68 1013.5
20260508010116 21 283 12.9 19.3 0.00 0.00 0.00 68 1013.5
20260508005615 21 283 11.3 17.7 0.00 0.00 0.00 67 1013.5
20260508005116 21 260 6.4 9.7 0.00 0.00 0.00 68 1013.6
20260508004615 21 305 9.7 14.5 0.00 0.00 0.00 66 1013.5
20260508004116 21 305 8.0 16.1 0.00 0.00 0.00 66 1013.4
20260508003615 21 305 9.7 14.5 0.00 0.00 0.00 67 1013.4
20260508003115 21 260 11.3 16.1 0.00 0.00 0.00 66 1013.4
20260508002616 21 260 9.7 14.5 0.00 0.00 0.00 67 1013.4
20260508002115 21 260 8.0 9.7 0.00 0.00 0.00 67 1013.5
20260508001615 21 283 9.7 12.9 0.00 0.00 0.00 68 1013.5
20260508001115 21 283 8.0 11.3 0.00 0.00 0.00 68 1013.5
20260508000616 22 260 11.3 14.5 0.00 0.00 0.00 67 1013.4
20260508000136 22 260 8.0 11.3 0.00 0.00 0.00 67 1013.5
20260507235656 22 260 8.0 12.9 0.00 0.00 0.00 67 1013.5
20260507235116 22 260 9.7 14.5 0.00 0.00 0.00 66 1013.5
20260507234616 22 283 9.7 11.3 0.00 0.00 0.00 65 1013.5
20260507234116 22 283 6.4 11.3 0.00 0.00 0.00 65 1013.5
20260507233636 22 260 9.7 16.1 0.00 0.00 0.00 65 1013.6
20260507233115 22 260 8.0 12.9 0.00 0.00 0.00 65 1013.6
20260507232616 22 283 9.7 16.1 0.00 0.00 0.00 65 1013.6
20260507232116 22 260 11.3 14.5 0.00 0.00 0.00 65 1013.6
20260507231615 22 328 9.7 16.1 0.00 0.00 0.00 65 1013.6
20260507231115 22 238 4.8 9.7 0.00 0.00 0.00 65 1013.7
20260507230615 22 260 6.4 9.7 0.00 0.00 0.00 65 1013.6
20260507230115 22 283 6.4 11.3 0.00 0.00 0.00 65 1013.7
20260507225616 22 283 6.4 11.3 0.00 0.00 0.00 66 1013.6
20260507225115 22 260 11.3 17.7 0.00 0.00 0.00 65 1013.6
20260507224615 22 260 6.4 11.3 0.00 0.00 0.00 65 1013.7
20260507224216 22 283 8.0 11.3 0.00 0.00 0.00 66 1013.7
20260507223655 22 305 8.0 16.1 0.00 0.00 0.00 64 1013.8
20260507223115 22 283 9.7 12.9 0.00 0.00 0.00 64 1013.9
20260507222635 22 283 9.7 14.5 0.00 0.00 0.00 64 1013.8
20260507222115 23 305 8.0 19.3 0.00 0.00 0.00 63 1013.9
20260507221615 23 283 9.7 12.9 0.00 0.00 0.00 62 1014.0
20260507221115 23 305 8.0 12.9 0.00 0.00 0.00 63 1014.0
20260507220615 23 260 9.7 14.5 0.00 0.00 0.00 61 1014.1
20260507220115 23 283 8.0 11.3 0.00 0.00 0.00 62 1014.1
20260507215636 23 283 8.0 11.3 0.00 0.00 0.00 61 1014.1
20260507215115 23 283 6.4 12.9 0.00 0.00 0.00 62 1014.1
20260507214615 23 260 8.0 9.7 0.00 0.00 0.00 61 1014.3
20260507214115 24 260 8.0 11.3 0.00 0.00 0.00 60 1014.3
20260507213656 24 260 4.8 8.0 0.00 0.00 0.00 61 1014.3
20260507213135 24 238 6.4 11.3 0.00 0.00 0.00 60 1014.3
20260507212615 23 148 1.6 4.8 0.00 0.00 0.00 59 1014.3
20260507212115 23 238 6.4 12.9 0.00 0.00 0.00 60 1014.4
20260507211615 23 215 4.8 6.4 0.00 0.00 0.00 60 1014.5
20260507211115 24 148 3.2 4.8 0.00 0.00 0.00 59 1014.5
20260507210615 23 238 6.4 11.3 0.00 0.00 0.00 59 1014.6
20260507210115 24 170 6.4 9.7 0.00 0.00 0.00 59 1014.7
20260507205615 23 260 6.4 11.3 0.00 0.00 0.00 58 1014.8
20260507205115 23 148 8.0 14.5 0.00 0.00 0.00 60 1014.8
20260507204615 23 170 8.0 9.7 0.00 0.00 0.00 60 1014.8
20260507204115 23 215 3.2 4.8 0.00 0.00 0.00 61 1014.9
20260507203615 22 148 3.2 4.8 0.00 0.00 0.00 62 1014.9
20260507203115 22 215 6.4 11.3 0.00 0.00 0.00 61 1014.9
20260507202615 23 148 4.8 9.7 0.00 0.00 0.00 62 1014.9
20260507202115 23 148 3.2 6.4 0.00 0.00 0.00 63 1014.9
20260507201615 22 215 6.4 11.3 0.00 0.00 0.00 63 1015.0
20260507201115 22 125 8.0 12.9 0.00 0.00 0.00 62 1015.1
20260507200617 22 148 6.4 11.3 0.00 0.00 0.00 62 1015.2
20260507200137 23 148 4.8 6.4 0.00 0.00 0.00 61 1015.3
20260507195617 23 148 4.8 8.0 0.00 0.00 0.00 60 1015.3
20260507195115 23 283 4.8 6.4 0.00 0.00 0.00 62 1015.4
20260507194637 22 260 8.0 14.5 0.00 0.00 0.00 63 1015.4
20260507194117 22 215 4.8 6.4 0.00 0.00 0.00 64 1015.5
20260507193616 22 148 9.7 14.5 0.00 0.00 0.00 64 1015.5
20260507193115 22 125 9.7 12.9 0.00 0.00 0.00 64 1015.4
20260507192617 22 238 6.4 11.3 0.00 0.00 0.00 63 1015.5
20260507192117 22 148 11.3 14.5 0.00 0.00 0.00 63 1015.6
20260507191617 22 238 6.4 9.7 0.00 0.00 0.00 64 1015.6
20260507191117 22 170 6.4 9.7 0.00 0.00 0.00 64 1015.7
20260507190657 22 148 6.4 9.7 0.00 0.00 0.00 64 1015.8
20260507190137 22 170 8.0 11.3 0.00 0.00 0.00 63 1015.7
20260507185617 22 125 3.2 6.4 0.00 0.00 0.00 63 1015.8
20260507185117 22 148 6.4 9.7 0.00 0.00 0.00 63 1015.9
20260507184617 22 125 4.8 6.4 0.00 0.00 0.00 63 1015.9
20260507184157 22 125 6.4 11.3 0.00 0.00 0.00 63 1015.9
20260507183617 22 148 1.6 6.4 0.00 0.00 0.00 64 1015.9
20260507183115 22 238 4.8 9.7 0.00 0.00 0.00 63 1016.0
20260507182617 21 0.0 3.2 0.00 0.00 0.00 64 1016.0
20260507182117 22 148 6.4 8.0 0.00 0.00 0.00 64 1016.1
20260507181617 22 148 4.8 11.3 0.00 0.00 0.00 64 1016.0
20260507181117 21 215 6.4 9.7 0.00 0.00 0.00 64 1016.1
20260507180617 22 148 3.2 6.4 0.00 0.00 0.00 64 1016.1
20260507180117 21 80 3.2 6.4 0.00 0.00 0.00 65 1016.1
20260507175617 21 148 4.8 6.4 0.00 0.00 0.00 65 1016.0
20260507175117 21 148 8.0 12.9 0.00 0.00 0.00 64 1016.1
20260507174617 22 215 6.4 9.7 0.00 0.00 0.00 63 1016.1
20260507174117 22 148 3.2 8.0 0.00 0.00 0.00 65 1016.2
20260507173617 21 125 3.2 4.8 0.00 0.00 0.00 66 1016.2
20260507173117 21 125 3.2 8.0 0.00 0.00 0.00 66 1016.2
20260507172617 21 260 3.2 4.8 0.00 0.00 0.00 66 1016.2
20260507172117 21 215 3.2 6.4 0.00 0.00 0.00 67 1016.2
20260507171617 21 260 4.8 6.4 0.00 0.00 0.00 66 1016.2
20260507171137 21 125 4.8 8.0 0.00 0.00 0.00 66 1016.2
20260507170617 21 125 9.7 12.9 0.00 0.00 0.00 64 1016.2
20260507170117 21 260 1.6 4.8 0.00 0.00 0.00 65 1016.2
20260507165617 21 238 4.8 8.0 0.00 0.00 0.00 66 1016.2
20260507165117 21 215 3.2 4.8 0.00 0.00 0.00 66 1016.2
20260507164617 21 170 1.6 3.2 0.00 0.00 0.00 67 1016.2
20260507164117 21 305 1.6 4.8 0.00 0.00 0.00 68 1016.3
20260507163617 21 148 4.8 6.4 0.00 0.00 0.00 68 1016.3
20260507163117 21 148 3.2 4.8 0.00 0.00 0.00 68 1016.4
20260507162737 21 0.0 1.6 0.00 0.00 0.00 69 1016.4
20260507162137 20 0.0 0.0 0.00 0.00 0.00 71 1016.4
20260507161617 20 103 1.6 3.2 0.00 0.00 0.00 71 1016.5
20260507161116 20 125 4.8 6.4 0.00 0.00 0.00 70 1016.5
20260507160617 20 148 3.2 6.4 0.00 0.00 0.00 69 1016.5
20260507160116 20 0.0 1.6 0.00 0.00 0.00 72 1016.5
20260507155617 20 0.0 0.0 0.00 0.00 0.00 75 1016.6
20260507155116 19 0.0 0.0 0.00 0.00 0.00 77 1016.6
20260507154616 19 0.0 1.6 0.00 0.00 0.00 76 1016.6
20260507154116 18 35 1.6 1.6 0.00 0.00 0.00 78 1016.6
20260507153617 18 13 1.6 1.6 0.00 0.00 0.00 80 1016.6
20260507153116 17 0.0 1.6 0.00 0.00 0.00 79 1016.5
20260507152617 18 0.0 1.6 0.00 0.00 0.00 81 1016.6
20260507152117 18 0.0 0.0 0.00 0.00 0.00 82 1016.7
20260507151637 17 13 1.6 3.2 0.00 0.00 0.00 81 1016.7
20260507151116 17 0.0 0.0 0.00 0.00 0.00 86 1016.7
20260507150616 16 305 1.6 1.6 0.00 0.00 0.00 84 1016.7
20260507150117 16 305 1.6 1.6 0.00 0.00 0.00 85 1016.7
20260507145617 16 283 1.6 1.6 0.00 0.00 0.00 86 1016.7
20260507145137 16 0.0 1.6 0.00 0.00 0.00 87 1016.6
20260507144617 15 305 1.6 3.2 0.00 0.00 0.00 88 1016.7
20260507144117 15 260 3.2 3.2 0.00 0.00 0.00 89 1016.6
20260507143616 15 0.0 1.6 0.00 0.00 0.00 90 1016.6
20260507143116 15 260 1.6 3.2 0.00 0.00 0.00 91 1016.5
20260507142637 15 0.0 1.6 0.00 0.00 0.00 92 1016.5
20260507142117 15 0.0 1.6 0.00 0.00 0.00 93 1016.4
20260507141617 14 0.0 1.6 0.00 0.00 0.00 94 1016.4
20260507141117 14 0.0 0.0 0.00 0.00 0.00 95 1016.3
20260507140616 13 0.0 0.0 0.00 0.00 0.00 95 1016.4
20260507140116 13 0.0 0.0 0.00 0.00 0.00 95 1016.3
20260507135617 13 0.0 0.0 0.00 0.00 0.00 95 1016.2
20260507135117 13 0.0 0.0 0.00 0.00 0.00 95 1016.2
20260507134616 13 0.0 0.0 0.00 0.00 0.00 95 1016.1
20260507134137 13 0.0 0.0 0.00 0.00 0.00 95 1016.0
20260507133616 13 0.0 0.0 0.00 0.00 0.00 95 1016.0
20260507133137 12 0.0 0.0 0.00 0.00 0.00 95 1016.0
20260507132616 12 0.0 0.0 0.00 0.00 0.00 95 1015.9
20260507132136 12 0.0 0.0 0.00 0.00 0.00 95 1016.0
20260507131617 12 0.0 0.0 0.00 0.00 0.00 95 1015.9
20260507131117 12 0.0 0.0 0.00 0.00 0.00 95 1015.9
20260507130617 12 0.0 0.0 0.00 0.00 0.00 95 1015.8
20260507130117 12 0.0 0.0 0.00 0.00 0.00 95 1015.8
20260507125616 12 0.0 0.0 0.00 0.00 0.00 94 1015.7
20260507125117 12 0.0 0.0 0.00 0.00 0.00 94 1015.6
20260507124616 12 0.0 0.0 0.00 0.00 0.00 95 1015.6
20260507124116 12 0.0 0.0 0.00 0.00 0.00 94 1015.6
20260507123616 12 0.0 0.0 0.00 0.00 0.00 94 1015.7
20260507123117 12 0.0 0.0 0.00 0.00 0.00 94 1015.7
20260507122656 12 0.0 0.0 0.00 0.00 0.00 94 1015.6
20260507122116 12 0.0 0.0 0.00 0.00 0.00 94 1015.7
20260507121616 12 0.0 0.0 0.00 0.00 0.00 94 1015.7
20260507121117 12 0.0 0.0 0.00 0.00 0.00 94 1015.7
20260507120616 12 0.0 0.0 0.00 0.00 0.00 93 1015.7
20260507120116 12 0.0 0.0 0.00 0.00 0.00 93 1015.8